QPF
0.11 0.11 0.07 0.04 0.03 0.02 0.02 0.01 0.01 0.01 0.01 0.02 0.01 0.01 0.00 0.00 0.00 0.00 0.00 0.00 0.00 0.00 0.00 0.00 0.00 0.00 0.00 0.01 0.01 0.00 0.00 0.00 0.00 0.00 0.00 0.00 0.00 0.00 0.00 0.00 0.00 0.00 0.00 0.00
0.09 0.08 0.04 0.03 0.03 0.03 0.03 0.02 0.01 0.01 0.01 0.02 0.02 0.01 0.00 0.00 0.00 0.00 0.00 0.00 0.00 0.00 0.00 0.00 0.00 0.00 0.00 0.00 0.01 0.01 0.00 0.00 0.00 0.00 0.00 0.00 0.00 0.00 0.00 0.00 0.00 0.00 0.00 0.00
0.05 0.04 0.02 0.03 0.03 0.03 0.03 0.02 0.01 0.01 0.02 0.02 0.02 0.01 0.00 0.00 0.00 0.00 0.00 0.00 0.00 0.00 0.00 0.00 0.00 0.00 0.00 0.00 0.00 0.01 0.01 0.00 0.00 0.00 0.00 0.00 0.00 0.00 0.00 0.00 0.00 0.00 0.00 0.00
0.05 0.02 0.03 0.03 0.02 0.02 0.02 0.01 0.01 0.02 0.03 0.03 0.03 0.02 0.00 0.00 0.00 0.00 0.00 0.00 0.00 0.00 0.00 0.00 0.00 0.00 0.00 0.00 0.00 0.00 0.01 0.01 0.00 0.00 0.00 0.00 0.00 0.00 0.00 0.00 0.00 0.00 0.00 0.00
0.05 0.02 0.02 0.03 0.03 0.02 0.02 0.02 0.02 0.03 0.05 0.05 0.03 0.02 0.01 0.00 0.00 0.00 0.00 0.00 0.00 0.00 0.00 0.00 0.00 0.00 0.00 0.00 0.00 0.00 0.00 0.01 0.01 0.01 0.00 0.00 0.00 0.00 0.00 0.00 0.00 0.00 0.00 0.00
0.03 0.03 0.03 0.03 0.02 0.02 0.04 0.04 0.04 0.05 0.09 0.10 0.04 0.03 0.01 0.00 0.00 0.00 0.00 0.00 0.00 0.00 0.00 0.00 0.00 0.00 0.00 0.00 0.00 0.00 0.00 0.00 0.01 0.01 0.01 0.00 0.00 0.00 0.00 0.00 0.00 0.00 0.00 0.00
0.04 0.03 0.03 0.03 0.03 0.03 0.04 0.07 0.11 0.11 0.11 0.06 0.01 0.01 0.01 0.00 0.00 0.00 0.00 0.00 0.00 0.00 0.00 0.00 0.00 0.00 0.00 0.00 0.00 0.00 0.00 0.00 0.00 0.00 0.01 0.01 0.00 0.00 0.00 0.00 0.00 0.00 0.00 0.00
0.05 0.03 0.02 0.02 0.02 0.03 0.04 0.05 0.07 0.06 0.03 0.01 0.00 0.00 0.00 0.00 0.00 0.00 0.00 0.00 0.00 0.00 0.00 0.00 0.00 0.00 0.00 0.00 0.00 0.00 0.00 0.00 0.00 0.00 0.00 0.00 0.00 0.00 0.00 0.00 0.00 0.00 0.00 0.00
0.04 0.02 0.01 0.01 0.01 0.02 0.04 0.05 0.03 0.06 0.04 0.02 0.01 0.00 0.00 0.00 0.00 0.00 0.00 0.00 0.00 0.00 0.00 0.00 0.00 0.00 0.00 0.00 0.00 0.00 0.00 0.00 0.00 0.00 0.00 0.00 0.00 0.00 0.00 0.00 0.00 0.00 0.00 0.00
0.06 0.04 0.01 0.01 0.02 0.03 0.02 0.03 0.06 0.11 0.10 0.05 0.01 0.00 0.00 0.00 0.00 0.00 0.00 0.00 0.00 0.00 0.00 0.00 0.00 0.00 0.00 0.00 0.00 0.00 0.00 0.00 0.00 0.00 0.00 0.00 0.00 0.00 0.00 0.00 0.00 0.00 0.00 0.00
0.07 0.08 0.04 0.03 0.03 0.02 0.02 0.04 0.06 0.08 0.08 0.05 0.03 0.01 0.00 0.00 0.00 0.00 0.00 0.00 0.00 0.00 0.00 0.00 0.00 0.00 0.00 0.00 0.00 0.00 0.00 0.00 0.00 0.00 0.00 0.00 0.00 0.00 0.00 0.00 0.00 0.00 0.00 0.00
0.07 0.10 0.07 0.04 0.02 0.02 0.03 0.03 0.04 0.07 0.05 0.03 0.02 0.01 0.00 0.00 0.00 0.00 0.00 0.00 0.00 0.00 0.00 0.00 0.00 0.00 0.00 0.00 0.00 0.00 0.00 0.00 0.00 0.00 0.00 0.00 0.00 0.00 0.00 0.00 0.00 0.00 0.00 0.00
0.09 0.12 0.09 0.07 0.05 0.04 0.04 0.03 0.04 0.06 0.08 0.06 0.04 0.01 0.00 0.00 0.00 0.00 0.00 0.00 0.00 0.00 0.00 0.00 0.00 0.00 0.00 0.00 0.00 0.00 0.00 0.00 0.00 0.00 0.00 0.00 0.00 0.00 0.00 0.00 0.00 0.00 0.00 0.00
0.13 0.14 0.10 0.06 0.04 0.04 0.04 0.02 0.02 0.06 0.09 0.06 0.03 0.01 0.00 0.00 0.00 0.00 0.00 0.00 0.00 0.00 0.00 0.00 0.00 0.00 0.00 0.00 0.00 0.00 0.00 0.00 0.00 0.00 0.00 0.00 0.00 0.00 0.00 0.00 0.00 0.00 0.00 0.00
0.09 0.11 0.06 0.03 0.02 0.02 0.03 0.03 0.03 0.04 0.04 0.04 0.02 0.01 0.00 0.00 0.00 0.00 0.00 0.00 0.00 0.01 0.00 0.00 0.00 0.00 0.00 0.00 0.00 0.00 0.00 0.00 0.00 0.00 0.00 0.00 0.00 0.00 0.00 0.00 0.00 0.00 0.00 0.00
0.07 0.07 0.04 0.03 0.02 0.02 0.03 0.02 0.01 0.02 0.02 0.02 0.01 0.01 0.00 0.00 0.00 0.00 0.00 0.00 0.00 0.00 0.00 0.00 0.00 0.00 0.00 0.00 0.00 0.00 0.00 0.00 0.00 0.00 0.00 0.00 0.00 0.00 0.00 0.00 0.00 0.00 0.00 0.00
0.08 0.08 0.06 0.04 0.02 0.04 0.04 0.01 0.01 0.01 0.01 0.01 0.01 0.00 0.00 0.00 0.00 0.00 0.00 0.00 0.00 0.00 0.00 0.00 0.00 0.00 0.00 0.00 0.00 0.00 0.00 0.00 0.00 0.00 0.00 0.00 0.00 0.00 0.00 0.00 0.00 0.00 0.00 0.01
0.06 0.08 0.09 0.06 0.05 0.06 0.02 0.00 0.00 0.01 0.01 0.00 0.00 0.00 0.00 0.00 0.00 0.00 0.00 0.00 0.01 0.01 0.01 0.01 0.00 0.00 0.00 0.00 0.00 0.00 0.00 0.00 0.00 0.00 0.00 0.00 0.00 0.00 0.00 0.00 0.00 0.00 0.00 0.01
0.03 0.06 0.08 0.07 0.05 0.03 0.01 0.00 0.00 0.00 0.01 0.00 0.01 0.01 0.00 0.00 0.01 0.01 0.00 0.01 0.01 0.01 0.01 0.01 0.01 0.00 0.00 0.00 0.00 0.00 0.00 0.00 0.00 0.00 0.00 0.00 0.00 0.00 0.00 0.00 0.00 0.01 0.01 0.01
0.02 0.04 0.09 0.07 0.06 0.03 0.00 0.00 0.00 0.01 0.01 0.00 0.00 0.00 0.00 0.01 0.01 0.01 0.01 0.01 0.01 0.01 0.02 0.02 0.02 0.01 0.00 0.00 0.00 0.00 0.00 0.00 0.00 0.00 0.00 0.00 0.00 0.00 0.00 0.00 0.01 0.01 0.01 0.01
0.03 0.05 0.08 0.06 0.05 0.02 0.00 0.00 0.00 0.02 0.02 0.01 0.01 0.01 0.01 0.01 0.02 0.01 0.01 0.01 0.01 0.01 0.01 0.01 0.01 0.01 0.01 0.00 0.00 0.00 0.00 0.00 0.00 0.00 0.00 0.00 0.00 0.00 0.00 0.00 0.01 0.01 0.01 0.01
0.02 0.04 0.05 0.05 0.05 0.03 0.01 0.01 0.01 0.02 0.01 0.01 0.01 0.01 0.01 0.01 0.01 0.01 0.01 0.01 0.01 0.01 0.00 0.01 0.01 0.01 0.01 0.01 0.01 0.01 0.01 0.01 0.01 0.01 0.01 0.01 0.01 0.01 0.01 0.01 0.01 0.01 0.01 0.02
0.01 0.01 0.02 0.04 0.03 0.01 0.01 0.01 0.01 0.01 0.01 0.01 0.01 0.01 0.01 0.01 0.00 0.00 0.00 0.00 0.00 0.00 0.00 0.00 0.00 0.00 0.00 0.01 0.01 0.01 0.01 0.01 0.01 0.01 0.01 0.01 0.01 0.01 0.01 0.01 0.01 0.01 0.02 0.02
0.01 0.00 0.01 0.01 0.01 0.01 0.01 0.01 0.01 0.01 0.01 0.01 0.01 0.01 0.00 0.00 0.00 0.00 0.00 0.00 0.00 0.00 0.00 0.00 0.01 0.01 0.01 0.01 0.01 0.01 0.01 0.01 0.01 0.01 0.02 0.02 0.02 0.02 0.02 0.02 0.02 0.02 0.02 0.02
0.01 0.01 0.01 0.01 0.01 0.01 0.01 0.01 0.01 0.01 0.01 0.00 0.01 0.01 0.01 0.00 0.00 0.00 0.00 0.01 0.01 0.01 0.01 0.01 0.01 0.01 0.01 0.01 0.01 0.02 0.02 0.02 0.02 0.02 0.03 0.03 0.03 0.04 0.04 0.04 0.03 0.03 0.03 0.02
0.00 0.00 0.01 0.00 0.00 0.01 0.00 0.00 0.01 0.01 0.01 0.01 0.01 0.01 0.01 0.01 0.01 0.00 0.00 0.01 0.01 0.01 0.01 0.02 0.02 0.02 0.02 0.02 0.02 0.02 0.02 0.02 0.02 0.02 0.03 0.03 0.03 0.03 0.03 0.03 0.03 0.03 0.02 0.02
MSLP
1015.09 1014.82 1014.54 1014.27 1014.05 1013.91 1013.86 1013.88 1013.94 1014.00 1014.02 1013.96 1013.80 1013.54 1013.19 1012.77 1012.32 1011.86 1011.42 1011.03 1010.68 1010.41 1010.20 1010.08 1010.05 1010.13 1010.33 1010.64 1011.06 1011.56 1012.11 1012.67 1013.21 1013.70 1014.12 1014.46 1014.74 1014.98 1015.21 1015.44 1015.70 1016.01 1016.34 1016.71
1014.88 1014.57 1014.25 1013.97 1013.78 1013.69 1013.72 1013.84 1014.00 1014.16 1014.24 1014.21 1014.04 1013.73 1013.31 1012.79 1012.25 1011.71 1011.21 1010.77 1010.41 1010.13 1009.91 1009.78 1009.71 1009.74 1009.85 1010.06 1010.37 1010.78 1011.26 1011.78 1012.30 1012.80 1013.26 1013.65 1013.98 1014.27 1014.52 1014.78 1015.04 1015.34 1015.66 1016.02
1014.70 1014.36 1014.02 1013.76 1013.60 1013.58 1013.70 1013.91 1014.17 1014.39 1014.50 1014.47 1014.25 1013.86 1013.32 1012.70 1012.04 1011.42 1010.87 1010.41 1010.06 1009.80 1009.61 1009.49 1009.42 1009.40 1009.44 1009.56 1009.76 1010.06 1010.44 1010.89 1011.38 1011.87 1012.34 1012.77 1013.15 1013.48 1013.77 1014.05 1014.33 1014.63 1014.95 1015.29
1014.59 1014.22 1013.87 1013.62 1013.51 1013.56 1013.76 1014.06 1014.38 1014.64 1014.76 1014.69 1014.39 1013.89 1013.22 1012.46 1011.69 1010.98 1010.38 1009.92 1009.59 1009.38 1009.25 1009.17 1009.11 1009.08 1009.08 1009.12 1009.23 1009.42 1009.70 1010.07 1010.49 1010.95 1011.42 1011.86 1012.26 1012.61 1012.93 1013.23 1013.52 1013.83 1014.15 1014.49
1014.55 1014.15 1013.80 1013.56 1013.49 1013.60 1013.87 1014.23 1014.60 1014.88 1014.98 1014.84 1014.45 1013.82 1013.02 1012.13 1011.24 1010.45 1009.80 1009.33 1009.04 1008.88 1008.82 1008.80 1008.79 1008.78 1008.76 1008.75 1008.78 1008.88 1009.07 1009.34 1009.68 1010.08 1010.50 1010.92 1011.31 1011.66 1011.98 1012.28 1012.58 1012.89 1013.21 1013.56
1014.58 1014.14 1013.78 1013.55 1013.51 1013.66 1013.97 1014.38 1014.78 1015.06 1015.13 1014.93 1014.44 1013.70 1012.77 1011.75 1010.76 1009.89 1009.20 1008.73 1008.46 1008.36 1008.36 1008.42 1008.47 1008.49 1008.48 1008.45 1008.43 1008.45 1008.55 1008.72 1008.98 1009.29 1009.63 1009.98 1010.32 1010.63 1010.91 1011.19 1011.47 1011.77 1012.10 1012.45
1014.65 1014.18 1013.80 1013.57 1013.54 1013.72 1014.06 1014.49 1014.90 1015.17 1015.21 1014.95 1014.39 1013.56 1012.53 1011.42 1010.35 1009.42 1008.70 1008.21 1007.96 1007.90 1007.96 1008.07 1008.18 1008.24 1008.25 1008.22 1008.17 1008.13 1008.15 1008.23 1008.38 1008.58 1008.81 1009.06 1009.30 1009.52 1009.74 1009.96 1010.20 1010.48 1010.80 1011.16
1014.76 1014.26 1013.86 1013.63 1013.61 1013.79 1014.14 1014.57 1014.97 1015.22 1015.23 1014.94 1014.33 1013.44 1012.36 1011.20 1010.08 1009.11 1008.37 1007.87 1007.63 1007.58 1007.67 1007.82 1007.96 1008.05 1008.08 1008.04 1007.97 1007.90 1007.84 1007.84 1007.87 1007.95 1008.06 1008.17 1008.28 1008.39 1008.50 1008.63 1008.81 1009.04 1009.35 1009.72
1014.91 1014.40 1014.00 1013.76 1013.74 1013.91 1014.24 1014.65 1015.02 1015.23 1015.21 1014.89 1014.26 1013.36 1012.27 1011.11 1009.98 1009.01 1008.25 1007.75 1007.49 1007.44 1007.52 1007.67 1007.81 1007.91 1007.94 1007.90 1007.81 1007.70 1007.58 1007.50 1007.43 1007.39 1007.36 1007.33 1007.29 1007.26 1007.25 1007.28 1007.37 1007.55 1007.82 1008.19
1015.14 1014.64 1014.25 1014.02 1013.98 1014.13 1014.42 1014.77 1015.07 1015.23 1015.17 1014.82 1014.18 1013.30 1012.24 1011.10 1010.01 1009.06 1008.31 1007.80 1007.52 1007.43 1007.48 1007.59 1007.70 1007.77 1007.77 1007.71 1007.60 1007.46 1007.30 1007.15 1007.00 1006.85 1006.70 1006.54 1006.38 1006.21 1006.08 1006.00 1006.00 1006.11 1006.34 1006.69
1015.46 1015.01 1014.66 1014.46 1014.41 1014.51 1014.72 1014.96 1015.16 1015.22 1015.08 1014.68 1014.03 1013.17 1012.16 1011.09 1010.06 1009.16 1008.44 1007.93 1007.62 1007.47 1007.45 1007.48 1007.52 1007.53 1007.48 1007.39 1007.25 1007.08 1006.90 1006.71 1006.52 1006.31 1006.08 1005.83 1005.57 1005.30 1005.06 1004.89 1004.81 1004.86 1005.03 1005.34
1015.90 1015.54 1015.26 1015.08 1015.01 1015.04 1015.13 1015.23 1015.27 1015.17 1014.90 1014.42 1013.74 1012.90 1011.94 1010.94 1010.00 1009.16 1008.48 1007.97 1007.62 1007.42 1007.30 1007.23 1007.17 1007.09 1006.98 1006.83 1006.67 1006.49 1006.31 1006.13 1005.93 1005.71 1005.46 1005.18 1004.87 1004.56 1004.26 1004.03 1003.89 1003.87 1003.99 1004.24
1016.43 1016.20 1016.00 1015.85 1015.75 1015.68 1015.62 1015.52 1015.34 1015.04 1014.59 1013.99 1013.24 1012.39 1011.47 1010.55 1009.69 1008.92 1008.29 1007.79 1007.41 1007.13 1006.91 1006.72 1006.54 1006.36 1006.17 1005.98 1005.80 1005.63 1005.48 1005.34 1005.19 1005.03 1004.83 1004.58 1004.30 1004.00 1003.70 1003.45 1003.28 1003.21 1003.28 1003.47
1016.99 1016.89 1016.78 1016.66 1016.51 1016.32 1016.06 1015.73 1015.30 1014.76 1014.10 1013.34 1012.49 1011.60 1010.71 1009.85 1009.07 1008.38 1007.79 1007.30 1006.89 1006.53 1006.21 1005.90 1005.60 1005.31 1005.04 1004.80 1004.61 1004.48 1004.39 1004.34 1004.30 1004.25 1004.16 1004.02 1003.82 1003.59 1003.35 1003.12 1002.95 1002.87 1002.89 1003.03
1017.48 1017.50 1017.46 1017.35 1017.13 1016.80 1016.34 1015.76 1015.06 1014.26 1013.38 1012.45 1011.50 1010.57 1009.69 1008.88 1008.17 1007.55 1007.00 1006.52 1006.07 1005.64 1005.21 1004.78 1004.36 1003.97 1003.62 1003.35 1003.16 1003.08 1003.08 1003.15 1003.26 1003.36 1003.44 1003.46 1003.41 1003.30 1003.15 1003.00 1002.86 1002.79 1002.79 1002.88
1017.78 1017.89 1017.89 1017.75 1017.44 1016.97 1016.31 1015.50 1014.55 1013.52 1012.44 1011.36 1010.32 1009.36 1008.50 1007.75 1007.10 1006.54 1006.03 1005.55 1005.06 1004.56 1004.03 1003.48 1002.94 1002.45 1002.03 1001.73 1001.56 1001.54 1001.64 1001.85 1002.13 1002.42 1002.68 1002.88 1003.01 1003.06 1003.04 1002.98 1002.91 1002.87 1002.87 1002.94
1017.81 1017.93 1017.91 1017.72 1017.32 1016.70 1015.88 1014.88 1013.75 1012.55 1011.33 1010.16 1009.08 1008.12 1007.30 1006.61 1006.03 1005.53 1005.05 1004.56 1004.03 1003.45 1002.82 1002.16 1001.51 1000.93 1000.45 1000.12 999.96 1000.00 1000.21 1000.56 1000.99 1001.46 1001.91 1002.31 1002.62 1002.83 1002.95 1003.00 1003.01 1003.02 1003.05 1003.13
1017.49 1017.55 1017.46 1017.17 1016.67 1015.94 1015.00 1013.89 1012.66 1011.39 1010.14 1008.97 1007.92 1007.02 1006.27 1005.67 1005.16 1004.71 1004.26 1003.76 1003.19 1002.53 1001.80 1001.03 1000.28 999.61 999.07 998.71 998.57 998.65 998.94 999.40 999.97 1000.59 1001.20 1001.76 1002.22 1002.58 1002.82 1002.98 1003.09 1003.16 1003.24 1003.35
1016.83 1016.76 1016.54 1016.13 1015.53 1014.72 1013.73 1012.60 1011.39 1010.16 1008.97 1007.89 1006.95 1006.18 1005.55 1005.06 1004.64 1004.24 1003.81 1003.30 1002.68 1001.95 1001.13 1000.27 999.43 998.68 998.08 997.69 997.54 997.64 997.98 998.51 999.17 999.90 1000.62 1001.28 1001.86 1002.32 1002.67 1002.92 1003.11 1003.26 1003.41 1003.58
1015.91 1015.64 1015.24 1014.71 1014.02 1013.18 1012.21 1011.14 1010.04 1008.95 1007.93 1007.03 1006.27 1005.67 1005.20 1004.83 1004.50 1004.16 1003.75 1003.23 1002.58 1001.79 1000.90 999.97 999.06 998.24 997.60 997.17 997.01 997.11 997.46 998.01 998.70 999.46 1000.23 1000.95 1001.58 1002.10 1002.52 1002.84 1003.10 1003.32 1003.54 1003.79
1014.81 1014.30 1013.72 1013.06 1012.31 1011.48 1010.59 1009.66 1008.74 1007.87 1007.08 1006.42 1005.88 1005.48 1005.18 1004.94 1004.71 1004.42 1004.04 1003.52 1002.85 1002.04 1001.11 1000.14 999.19 998.34 997.67 997.21 997.02 997.09 997.42 997.94 998.61 999.35 1000.10 1000.81 1001.45 1001.99 1002.43 1002.79 1003.10 1003.39 1003.70 1004.03
1013.63 1012.88 1012.13 1011.36 1010.59 1009.81 1009.04 1008.30 1007.60 1006.98 1006.45 1006.04 1005.73 1005.52 1005.38 1005.26 1005.11 1004.89 1004.54 1004.05 1003.39 1002.59 1001.67 1000.71 999.77 998.92 998.24 997.78 997.56 997.59 997.86 998.32 998.91 999.58 1000.27 1000.92 1001.51 1002.02 1002.46 1002.84 1003.19 1003.54 1003.92 1004.33
1012.44 1011.50 1010.61 1009.78 1009.02 1008.33 1007.70 1007.15 1006.69 1006.31 1006.02 1005.82 1005.71 1005.66 1005.64 1005.62 1005.54 1005.38 1005.08 1004.63 1004.03 1003.28 1002.44 1001.54 1000.66 999.87 999.22 998.76 998.53 998.51 998.71 999.08 999.58 1000.14 1000.72 1001.28 1001.80 1002.26 1002.67 1003.05 1003.43 1003.82 1004.26 1004.75
1011.30 1010.23 1009.26 1008.42 1007.71 1007.12 1006.65 1006.29 1006.02 1005.84 1005.74 1005.70 1005.71 1005.76 1005.82 1005.86 1005.83 1005.72 1005.48 1005.12 1004.61 1003.98 1003.26 1002.49 1001.73 1001.03 1000.46 1000.04 999.79 999.74 999.87 1000.14 1000.51 1000.95 1001.41 1001.86 1002.29 1002.69 1003.07 1003.44 1003.83 1004.26 1004.75 1005.30
1010.23 1009.10 1008.14 1007.34 1006.72 1006.25 1005.92 1005.71 1005.59 1005.54 1005.54 1005.59 1005.66 1005.74 1005.82 1005.87 1005.88 1005.81 1005.66 1005.40 1005.03 1004.56 1004.02 1003.43 1002.83 1002.28 1001.81 1001.44 1001.22 1001.13 1001.18 1001.35 1001.61 1001.93 1002.27 1002.62 1002.96 1003.30 1003.65 1004.01 1004.41 1004.86 1005.38 1005.97
1009.22 1008.14 1007.24 1006.54 1006.04 1005.70 1005.50 1005.39 1005.36 1005.37 1005.40 1005.45 1005.50 1005.55 1005.60 1005.64 1005.66 1005.65 1005.58 1005.46 1005.26 1005.00 1004.67 1004.29 1003.89 1003.50 1003.14 1002.86 1002.65 1002.55 1002.54 1002.62 1002.77 1002.97 1003.21 1003.48 1003.75 1004.05 1004.37 1004.73 1005.14 1005.61 1006.14 1006.73
Thickness
5530 5533 5544 5559 5568 5578 5585 5589 5595 5608 5620 5617 5619 5628 5640 5652 5656 5661 5668 5674 5680 5687 5695 5699 5701 5702 5701 5700 5699 5698 5696 5694 5692 5690 5688 5686 5686 5686 5685 5685 5683 5682 5679 5677
5517 5528 5547 5555 5560 5562 5567 5572 5582 5595 5604 5604 5607 5616 5632 5642 5648 5656 5662 5668 5674 5680 5686 5691 5694 5695 5695 5695 5694 5693 5693 5692 5690 5689 5688 5686 5684 5683 5683 5682 5681 5679 5677 5674
5513 5534 5542 5543 5547 5550 5556 5563 5571 5578 5587 5590 5589 5598 5617 5634 5644 5652 5660 5665 5670 5673 5677 5682 5685 5687 5687 5687 5688 5689 5688 5688 5687 5685 5683 5681 5679 5678 5678 5678 5677 5675 5673 5671
5508 5524 5529 5531 5538 5544 5548 5562 5564 5565 5562 5566 5574 5576 5610 5626 5634 5644 5651 5657 5663 5667 5671 5674 5676 5678 5679 5680 5682 5682 5682 5682 5681 5680 5678 5676 5675 5674 5675 5675 5673 5671 5669 5666
5501 5514 5517 5522 5533 5538 5543 5552 5552 5552 5549 5550 5561 5561 5591 5618 5624 5637 5646 5652 5657 5661 5663 5665 5667 5668 5671 5672 5672 5673 5673 5674 5674 5674 5672 5670 5669 5670 5670 5669 5667 5666 5664 5661
5495 5505 5509 5518 5527 5531 5533 5533 5534 5536 5532 5531 5553 5552 5576 5604 5621 5631 5639 5645 5650 5653 5655 5656 5658 5659 5659 5660 5661 5662 5662 5663 5665 5665 5665 5664 5663 5662 5661 5661 5660 5659 5658 5656
5481 5491 5502 5510 5511 5518 5519 5513 5509 5511 5514 5526 5555 5552 5576 5607 5622 5628 5632 5636 5641 5643 5644 5644 5644 5645 5646 5647 5648 5649 5650 5652 5654 5655 5655 5656 5655 5655 5654 5653 5653 5651 5650 5649
5469 5478 5494 5502 5505 5508 5512 5510 5506 5507 5514 5527 5542 5548 5580 5604 5613 5620 5624 5626 5629 5630 5631 5632 5632 5632 5633 5634 5635 5636 5637 5639 5641 5642 5644 5645 5646 5645 5645 5645 5644 5644 5643 5642
5468 5478 5496 5500 5505 5503 5500 5503 5513 5506 5505 5506 5525 5552 5575 5589 5596 5602 5608 5611 5613 5615 5617 5617 5618 5619 5619 5620 5621 5623 5624 5626 5628 5630 5631 5632 5633 5634 5634 5635 5634 5634 5633 5632
5464 5465 5481 5490 5493 5496 5499 5501 5495 5490 5490 5495 5516 5535 5555 5571 5577 5585 5590 5594 5598 5601 5601 5602 5602 5603 5604 5605 5606 5608 5610 5612 5613 5615 5617 5618 5619 5620 5621 5621 5621 5621 5620 5619
5455 5452 5465 5475 5478 5484 5487 5488 5489 5487 5489 5493 5501 5527 5565 5569 5573 5575 5578 5581 5583 5584 5584 5585 5586 5587 5588 5589 5591 5592 5594 5596 5598 5600 5601 5602 5604 5605 5606 5606 5606 5606 5606 5606
5450 5447 5449 5464 5479 5485 5485 5487 5486 5478 5478 5489 5495 5516 5556 5560 5562 5562 5563 5565 5567 5569 5569 5569 5571 5571 5572 5572 5574 5576 5578 5579 5581 5583 5585 5587 5588 5589 5590 5591 5591 5591 5591 5591
5439 5435 5435 5445 5455 5465 5469 5478 5481 5479 5476 5475 5478 5502 5540 5543 5545 5548 5548 5548 5549 5550 5552 5553 5554 5554 5555 5557 5558 5559 5561 5562 5564 5566 5569 5570 5572 5573 5574 5575 5575 5575 5575 5575
5431 5423 5426 5434 5446 5450 5454 5462 5467 5465 5460 5465 5476 5495 5515 5521 5526 5531 5532 5533 5533 5534 5535 5536 5538 5539 5540 5541 5542 5543 5544 5545 5547 5549 5551 5553 5554 5555 5556 5557 5558 5558 5558 5557
5418 5412 5418 5427 5437 5441 5442 5446 5453 5455 5459 5458 5473 5485 5503 5510 5512 5516 5518 5519 5519 5521 5521 5523 5524 5525 5525 5526 5526 5526 5527 5529 5530 5531 5533 5534 5536 5537 5537 5538 5539 5539 5539 5539
5409 5404 5407 5411 5424 5429 5431 5441 5447 5451 5458 5462 5469 5480 5502 5505 5503 5503 5504 5506 5506 5508 5509 5510 5511 5512 5512 5512 5512 5512 5512 5512 5513 5514 5515 5516 5517 5518 5518 5519 5519 5520 5520 5520
5395 5392 5390 5396 5411 5409 5408 5437 5446 5450 5459 5462 5464 5480 5492 5491 5492 5492 5492 5493 5494 5495 5496 5496 5497 5497 5497 5498 5498 5497 5496 5496 5496 5496 5497 5497 5498 5498 5499 5500 5500 5501 5501 5501
5385 5381 5380 5382 5384 5384 5424 5450 5451 5452 5459 5462 5465 5472 5478 5480 5482 5481 5480 5479 5479 5479 5479 5480 5480 5480 5480 5480 5479 5479 5478 5477 5478 5478 5479 5479 5479 5479 5480 5480 5481 5482 5482 5481
5388 5378 5373 5372 5372 5386 5420 5439 5444 5442 5445 5454 5455 5460 5463 5464 5463 5464 5466 5464 5462 5462 5462 5462 5462 5462 5463 5462 5462 5460 5459 5459 5459 5460 5460 5460 5460 5461 5461 5462 5463 5463 5463 5462
5384 5378 5368 5366 5367 5370 5415 5435 5439 5433 5426 5439 5440 5442 5444 5443 5440 5450 5450 5447 5445 5444 5444 5443 5443 5443 5443 5443 5442 5441 5441 5441 5442 5442 5442 5442 5442 5443 5443 5443 5444 5444 5443 5443
5364 5363 5362 5362 5362 5376 5412 5420 5422 5407 5414 5427 5427 5428 5428 5427 5429 5431 5429 5427 5425 5425 5425 5425 5424 5424 5424 5423 5423 5423 5423 5423 5424 5423 5422 5422 5423 5424 5424 5424 5425 5425 5423 5423
5359 5356 5356 5359 5359 5373 5402 5404 5401 5403 5409 5410 5410 5411 5410 5411 5412 5412 5410 5408 5407 5406 5406 5406 5405 5404 5404 5404 5404 5405 5405 5405 5404 5404 5404 5404 5405 5406 5406 5405 5406 5406 5405 5403
5361 5365 5363 5366 5372 5385 5390 5389 5391 5391 5390 5392 5392 5393 5391 5391 5393 5394 5393 5391 5389 5388 5387 5386 5385 5384 5384 5384 5386 5386 5385 5384 5385 5385 5385 5386 5386 5386 5387 5387 5388 5388 5387 5386
5355 5359 5357 5357 5369 5376 5377 5377 5376 5375 5375 5376 5375 5374 5374 5373 5375 5375 5375 5374 5372 5370 5367 5366 5365 5364 5364 5365 5366 5366 5366 5366 5366 5366 5367 5368 5368 5369 5369 5368 5369 5369 5369 5368
5345 5345 5343 5346 5357 5359 5364 5364 5362 5359 5357 5357 5358 5358 5358 5358 5358 5358 5357 5356 5354 5352 5349 5347 5347 5347 5346 5346 5346 5347 5348 5349 5349 5350 5350 5350 5351 5351 5351 5351 5351 5351 5350 5350
5339 5337 5336 5343 5351 5347 5353 5353 5348 5344 5343 5342 5341 5342 5343 5342 5342 5341 5340 5339 5336 5334 5331 5329 5328 5328 5328 5328 5328 5329 5329 5331 5333 5334 5334 5334 5333 5333 5333 5333 5332 5332 5332 5332